DW4221 Weather Reports


time (UTC)temp
C
wind
direction
speed
KPH
gust
KPH
rain 1hr
cm
rain 24hr
cm
rain mn
cm
humidity
%
barometer
mb
20260902163101 22 287 1.6 9.7 0.00 0.00 0.00 67 1015.3
20260902161603 22 0 1.6 17.7 0.00 0.00 0.00 67 1015.2
20260902154602 22 11 3.2 12.9 0.00 0.00 0.00 68 1014.9
20260902153055 22 314 1.6 11.3 0.00 0.00 0.00 69 1015.2
20260902151556 21 57 1.6 6.4 0.00 0.00 0.00 69 1015.1
20260902150052 21 0 0.0 9.7 0.00 0.00 0.00 73 1015.1
20260902144613 20 0 0.0 0.0 0.00 0.00 0.00 77 1015.2
20260902143057 18 0 0.0 0.0 0.00 0.00 0.00 83 1015.4
20260902141602 18 0 0.0 0.0 0.00 0.00 0.00 86 1015.8
20260902140100 18 0 0.0 0.0 0.00 0.00 0.00 87 1015.7
20260902134601 16 0 0.0 0.0 0.00 0.00 0.00 96 1015.6
20260902133056 14 0 0.0 0.0 0.00 0.00 0.00 99 1015.5
20260902131554 13 0 0.0 0.0 0.00 0.00 0.00 98 1015.7
20260902130052 12 0 0.0 0.0 0.00 0.00 0.00 99 1015.6
20260902124604 11 0 0.0 0.0 0.00 0.00 0.00 98 1015.3
20260902123103 11 0 0.0 0.0 0.00 0.00 0.00 98 1015.1
20260902121613 11 0 0.0 0.0 0.00 0.00 0.00 98 1015.0
20260902120108 11 0 0.0 0.0 0.00 0.00 0.00 97 1015.0
20260902114619 11 0 0.0 0.0 0.00 0.00 0.00 97 1014.8
20260902113104 11 0 0.0 0.0 0.00 0.00 0.00 96 1014.7
20260902111605 11 0 0.0 0.0 0.00 0.00 0.00 96 1014.7
20260902110110 12 0 0.0 1.6 0.00 0.00 0.00 97 1014.5
20260902104619 11 0 0.0 0.0 0.00 0.00 0.00 97 1014.7
20260902103116 11 0 0.0 0.0 0.00 0.00 0.00 96 1014.6
20260902101601 11 0 0.0 0.0 0.00 0.00 0.00 97 1014.9
20260902100101 12 0 0.0 0.0 0.00 0.00 0.00 97 1015.0
20260902094600 12 0 0.0 0.0 0.00 0.00 0.00 97 1015.0
20260902093111 12 0 0.0 3.2 0.00 0.00 0.00 97 1014.6
20260902091601 12 0 0.0 0.0 0.00 0.00 0.00 96 1014.5
20260902090101 12 0 0.0 0.0 0.00 0.00 0.00 96 1014.5
20260902084552 12 0 0.0 0.0 0.00 0.00 0.00 96 1014.6
20260902083101 12 0 0.0 0.0 0.00 0.00 0.00 96 1014.4
20260902081559 12 0 0.0 0.0 0.00 0.00 0.00 96 1014.3
20260902080054 12 0 0.0 0.0 0.00 0.00 0.00 95 1014.3
20260902074606 13 0 0.0 0.0 0.00 0.00 0.00 95 1014.2
20260902073107 13 0 0.0 0.0 0.00 0.00 0.00 95 1014.2
20260902071556 13 0 0.0 0.0 0.00 0.00 0.00 95 1014.4
20260902070107 13 0 0.0 0.0 0.00 0.00 0.00 96 1014.3
20260902064551 13 0 0.0 0.0 0.00 0.00 0.00 95 1014.4
20260902063102 13 0 0.0 0.0 0.00 0.00 0.00 95 1014.4
20260902061604 13 0 0.0 0.0 0.00 0.00 0.00 95 1014.4
20260902060116 13 0 0.0 0.0 0.00 0.00 0.00 95 1014.4
20260902054603 13 0 0.0 0.0 0.00 0.00 0.00 95 1014.3
20260902053106 13 0 0.0 0.0 0.00 0.00 0.00 95 1014.5
20260902051606 13 0 0.0 0.0 0.00 0.00 0.00 95 1014.6
20260902050055 13 0 0.0 0.0 0.00 0.00 0.00 94 1015.0
20260902044604 13 0 0.0 0.0 0.00 0.00 0.00 94 1015.0
20260902043106 13 0 0.0 0.0 0.00 0.00 0.00 94 1014.8
20260902041605 14 0 0.0 0.0 0.00 0.00 0.00 93 1014.7
20260902040108 14 0 0.0 0.0 0.00 0.00 0.00 92 1014.4
20260902034603 15 0 0.0 0.0 0.00 0.00 0.00 91 1014.5
20260902033107 15 0 0.0 0.0 0.00 0.00 0.00 92 1014.5
20260902031608 15 0 0.0 0.0 0.00 0.00 0.00 91 1014.5
20260902030051 15 0 0.0 0.0 0.00 0.00 0.00 90 1014.6
20260902024611 16 0 0.0 0.0 0.00 0.00 0.00 89 1014.5
20260902023058 16 0 0.0 0.0 0.00 0.00 0.00 89 1014.4
20260902021553 16 0 0.0 0.0 0.00 0.00 0.00 88 1014.2
20260902020059 17 0 0.0 0.0 0.00 0.00 0.00 87 1014.1
20260902014604 17 0 0.0 0.0 0.00 0.00 0.00 85 1013.9
20260902013059 18 0 0.0 0.0 0.00 0.00 0.00 81 1013.8
20260902011556 18 0 0.0 1.6 0.00 0.00 0.00 80 1013.6
20260902010105 20 0 0.0 3.2 0.00 0.00 0.00 77 1013.4
20260902004603 20 0 0.0 4.8 0.00 0.00 0.00 75 1013.4
20260902003100 20 0 0.0 0.0 0.00 0.00 0.00 75 1013.5
20260902001557 21 0 0.0 0.0 0.00 0.00 0.00 72 1013.5
20260901234613 22 0 0.0 3.2 0.00 0.00 0.00 69 1013.4
20260901233104 22 0 0.0 6.4 0.00 0.00 0.00 67 1013.4
20260901231554 22 0 1.6 6.4 0.00 0.00 0.00 63 1013.3
20260901230105 23 251 1.6 11.3 0.00 0.00 0.00 60 1013.1
20260901224601 23 0 1.6 12.9 0.00 0.00 0.00 58 1013.1
20260901223055 24 218 3.2 12.9 0.00 0.00 0.00 56 1013.1
20260901221554 23 224 3.2 19.3 0.00 0.00 0.00 58 1013.0
20260901220118 24 30 4.8 17.7 0.00 0.00 0.00 55 1012.9
20260901214557 24 0 4.8 16.1 0.00 0.00 0.00 54 1013.0
20260901213112 25 261 4.8 19.3 0.00 0.00 0.00 54 1012.8
20260901211553 25 271 6.4 22.5 0.00 0.00 0.00 55 1012.9
20260901210051 25 217 8.0 17.7 0.00 0.00 0.00 52 1013.0
20260901204602 24 252 8.0 25.7 0.00 0.00 0.00 54 1012.9
20260901203106 24 202 3.2 24.1 0.00 0.00 0.00 54 1013.2
20260901201557 25 250 8.0 25.7 0.00 0.00 0.00 51 1013.0
20260901200104 25 258 6.4 25.7 0.00 0.00 0.00 53 1013.0
20260901194605 25 249 4.8 24.1 0.00 0.00 0.00 54 1013.1
20260901193108 25 298 9.7 25.7 0.00 0.00 0.00 52 1013.2
20260901191606 25 222 4.8 17.7 0.00 0.00 0.00 54 1013.1
20260901184603 24 45 1.6 17.7 0.00 0.00 0.00 56 1013.4
20260901183055 25 225 4.8 24.1 0.00 0.00 0.00 56 1013.4
20260901181607 24 290 4.8 19.3 0.00 0.00 0.00 56 1013.5
20260901180105 24 258 6.4 22.5 0.00 0.00 0.00 57 1013.5
20260901174603 24 180 8.0 24.1 0.00 0.00 0.00 55 1013.5
20260901173058 23 137 6.4 24.1 0.00 0.00 0.00 56 1013.6
20260901171555 23 207 6.4 17.7 0.00 0.00 0.00 58 1013.8
20260901170120 23 273 4.8 19.3 0.00 0.00 0.00 58 1014.0
20260901164607 23 215 4.8 25.7 0.00 0.03 0.00 60 1014.0